* Astronomy

Members Login
Username 
 
Password 
    Remember Me  
Post Info TOPIC: Asteroid 2012 JU4


L

Posts: 131433
Date:
Asteroid 2012 JU4
Permalink  
 


Orbital elements:
2012 JU4                                                 Earth MOID = 0.3648 AU
Epoch 2012 Mar. 14.0 TT = JDT 2456000.5                 MPC
M 300.78649              (2000.0)            P               Q
n   0.41140314     Peri.   60.15857     +0.22220268     +0.95330996
a   1.7904312      Node   224.24701     -0.96472864     +0.18460303
e   0.2752021      Incl.   17.04389     -0.14115458     +0.23900177
P   2.40           H   20.8           G   0.15           U   7

MPEC 2012 - J48



__________________
Page 1 of 1  sorted by
 
Quick Reply

Please log in to post quick replies.



Create your own FREE Forum
Report Abuse
Powered by ActiveBoard